Starlink 31753

operational
NORAD ID: 59484 Int'l Des: 2024-071 Owner: SPXS Country: US Constellation: starlink
LEOCIRCULAR

关于 Starlink 31753

正在加载描述...

实时位置

正在加载3D地球...

即将过境

高度历史

Altitude vs Time

uPlot chart will show altitude changes over time

两行轨道根数

1 59484U 24071A 25310.29839623 .00001960 00000-0 80702-4 0 9994
2 59484 43.0030 316.6731 0000672 252.5133 107.5645 15.27591910 89336
Epoch: Nov 6, 2025 • Age: 26 hours

当前状态

高度 491.0 km
速度 7.62 km/s
星下点 -30.90°S, 15.63°W
发射日期 Apr 13, 2024
运行时间 1.5 years
类型 internet

技术详情

分类 Payload
质量 730.00 kg
干质量 700.00 kg
总质量 730.00 kg
长度 0.30 m
直径 4.10 m
跨度 29.00 m
形状 Box + pan
制造商 SPXS
平台类型 Starlink V2M
阶段状态 In Orbit
所有者/国家 SPXS/US

大型星座

Loading constellations...